Regional Weather Roundup
Issued by NWS

Home | Current Version | Previous Version | Text Only | Print | Product List | Glossary Off
Versions: 1 2 3 4 5 6 7 8 9 10 11 12 13 14 15 16 17 18 19 20 21 22 23 24 25 26 27 28 29 30 31 32 33 34 35 36 37 38 39 40 41 42 43 44 45 46 47 48 49 50

000
ASUS43 KOAX 192310
RWRNE

WEATHER ROUNDUP FOR NEBRASKA
NATIONAL WEATHER SERVICE OMAHA NE
600 PM CDT SAT AUG 19 2017

NOTES: SATELLITE DATA IS BEING USED TO AUGMENT CLOUD COVER ABOVE
       12000 FEET.
       "FAIR" INDICATES FEW OR NO CLOUDS BELOW 12,000 FEET WITH NO
       SIGNIFICANT WEATHER AND/OR OBSTRUCTIONS TO VISIBILITY.


NEZ001>004-019>022-054>056-200000-
NEBRASKA PANHANDLE

CITY           SKY/WX    TMP DP  RH WIND       PRES   REMARKS
SCOTTSBLUFF    SUNNY     96  31  10 NW6       29.90F HX  90
ALLIANCE       SUNNY     92  42  17 N6        29.90S
CHADRON        SUNNY     96  37  12 VRB3      29.84F HX  91
GORDON         FAIR      93  40  15 E6        29.87F
KIMBALL        SUNNY     91  39  16 N7        29.98F
SIDNEY         SUNNY     93  49  22 NE10G21   29.94F HX  90
$$

NEZ057>060-069>072-079>082-200000-
SOUTHWEST NEBRASKA

CITY           SKY/WX    TMP DP  RH WIND       PRES   REMARKS
NORTH PLATTE   CLOUDY    90  68  48 S5        29.83F HX  94
IMPERIAL       SUNNY     95  56  26 S9        29.85F HX  93
LEXINGTON      SUNNY     91  67  46 SE12      29.84F HX  94
MCCOOK         SUNNY     96  64  34 S18G24    29.82F HX  98
OGALLALA       CLOUDY    87  70  57 SW14G20   29.90R THUNDER HX  91
$$

NEZ005>010-023>029-035>040-094-200000-
NORTH CENTRAL NEBRASKA

CITY           SKY/WX    TMP DP  RH WIND       PRES   REMARKS
VALENTINE      SUNNY     97  53  22 NW8       29.80S HX  94
AINSWORTH      SUNNY     92  60  33 W9        29.80S HX  92
BROKEN BOW     SUNNY     91  69  48 S17G23    29.83F HX  96
O`NEILL        SUNNY     85  71  62 S15G23    29.82F HX  90
ORD            SUNNY     88  67  49 S14G22    29.81F HX  91
THEDFORD       SUNNY     95  61  31 SW12G20   29.83F HX  95
$$

NEZ041-046>049-061>064-073>077-083>087-200000-
SOUTH CENTRAL NEBRASKA

CITY           SKY/WX    TMP DP  RH WIND       PRES   REMARKS
GRAND ISLAND   SUNNY     85  73  67 SE14      29.85F HX  91
AURORA         SUNNY     84  71  64 SE8       29.86F
HASTINGS       SUNNY     91  65  41 S12       29.86F HX  93
HEBRON         SUNNY     90  69  50 S10       29.86F HX  95
HOLDREGE       SUNNY     88  66  47 SE12      29.85F HX  91
KEARNEY        SUNNY     88  69  53 S8        29.85F HX  92
YORK           SUNNY     84  68  58 SE9       29.86F
$$

NEZ011>018-030>034-042>045-200000-
NORTHEAST NEBRASKA

CITY           SKY/WX    TMP DP  RH WIND       PRES   REMARKS
NORFOLK        SUNNY     81  67  62 SE15G23   29.84F
ALBION         SUNNY     84  72  67 SE10G17   29.86S
BLAIR          SUNNY     84  62  48 SE8       29.89F
COLUMBUS       SUNNY     83  68  60 SE10      29.86F
FREMONT        SUNNY     83  62  49 SE9       29.88F
TEKAMAH        SUNNY     83  66  56 SE9       29.87F
WAYNE          SUNNY     79  67  66 SE15      29.86F
$$

NEZ050>053-065>068-078-088>093-200000-
SOUTHEAST NEBRASKA

CITY           SKY/WX    TMP DP  RH WIND       PRES   REMARKS
LINCOLN        SUNNY     87  66  49 E13       29.87F
OMAHA EPPLEY   MOSUNNY   86  61  42 SE16      29.88F
BEATRICE       SUNNY     95  59  30 S13       29.86F HX  94
FALLS CITY     SUNNY     87  66  49 E9        29.88F
NEBRASKA CITY  SUNNY     85  64  48 SE8       29.89F
PLATTSMOUTH    SUNNY     84  61  46 SE7       29.90S
$$

NEZ044-045-051>053-067-200000-
OMAHA AREA

CITY           SKY/WX    TMP DP  RH WIND       PRES   REMARKS
OMAHA EPPLEY   MOSUNNY   86  61  42 SE16      29.88F
BLAIR          SUNNY     84  62  48 SE8       29.89F
FREMONT        SUNNY     83  62  49 SE9       29.88F
MILLARD        SUNNY     86  62  45 SE8       29.88F
OFFUTT AFB     SUNNY     86  60  41 SE12      29.88F
PLATTSMOUTH    SUNNY     84  61  46 SE7       29.90S
WAHOO          FAIR      83  65  55 SE8       29.87F
$$




USA.gov is the U.S. government's official web portal to all federal, state and local government web resources and services.